| time (UTC) | temp F | wind direction | speed MPH | gust MPH | rain 1hr in | rain 24hr in | rain mn in | humidity % | barometer mb |
| 20260901110147 | 77 | 164 | 0.0 | 0.0 | 0.00 | 0.00 | 0.00 | 90 | 1017.0 |
| 20260901105703 | 77 | 165 | 0.0 | 0.0 | 0.00 | 0.00 | 0.00 | 90 | 1017.1 |
| 20260901105217 | 77 | 165 | 0.0 | 0.0 | 0.00 | 0.00 | 0.00 | 90 | 1017.2 |
| 20260901104713 | 77 | 165 | 0.0 | 0.0 | 0.00 | 0.00 | 0.00 | 90 | 1017.1 |
| 20260901104134 | 77 | 149 | 0.0 | 0.0 | 0.00 | 0.00 | 0.00 | 90 | 1017.2 |
| 20260901103634 | 77 | 150 | 0.0 | 0.0 | 0.00 | 0.00 | 0.00 | 90 | 1017.3 |
| 20260901103149 | 77 | 140 | 0.0 | 0.0 | 0.00 | 0.00 | 0.00 | 90 | 1017.3 |
| 20260901102712 | 77 | 165 | 0.0 | 0.0 | 0.00 | 0.00 | 0.00 | 90 | 1017.3 |
| 20260901102219 | 77 | 182 | 0.0 | 0.0 | 0.00 | 0.00 | 0.00 | 90 | 1017.1 |
| 20260901101714 | 77 | 182 | 0.0 | 0.0 | 0.00 | 0.00 | 0.00 | 90 | 1017.1 |
| 20260901101206 | 76 | 183 | 0.0 | 0.0 | 0.00 | 0.00 | 0.00 | 89 | 1017.0 |
| 20260901100701 | 76 | 183 | 0.0 | 0.0 | 0.00 | 0.00 | 0.00 | 89 | 1017.0 |
| 20260901095627 | 77 | 183 | 0.0 | 0.0 | 0.00 | 0.00 | 0.00 | 89 | 1017.0 |
| 20260901095228 | 77 | 183 | 0.0 | 0.0 | 0.00 | 0.00 | 0.00 | 88 | 1017.0 |
| 20260901094716 | 77 | 183 | 0.0 | 0.0 | 0.00 | 0.00 | 0.00 | 88 | 1017.0 |
| 20260901094129 | 77 | 129 | 0.0 | 0.0 | 0.00 | 0.00 | 0.00 | 88 | 1017.0 |
| 20260901093652 | 77 | 129 | 0.0 | 0.0 | 0.00 | 0.00 | 0.00 | 87 | 1017.0 |
| 20260901093151 | 77 | 129 | 0.0 | 0.0 | 0.00 | 0.00 | 0.00 | 87 | 1017.0 |
| 20260901092651 | 77 | 129 | 0.0 | 0.0 | 0.00 | 0.00 | 0.00 | 86 | 1017.1 |
| 20260901091630 | 77 | 129 | 0.0 | 0.0 | 0.00 | 0.00 | 0.00 | 86 | 1017.2 |
| 20260901091152 | 77 | 129 | 0.0 | 0.0 | 0.00 | 0.00 | 0.00 | 86 | 1017.2 |
| 20260901090709 | 77 | 129 | 0.0 | 0.0 | 0.00 | 0.00 | 0.00 | 85 | 1017.2 |
| 20260901090203 | 78 | 129 | 0.0 | 0.0 | 0.00 | 0.00 | 0.00 | 85 | 1017.3 |
| 20260901085656 | 78 | 129 | 0.0 | 0.0 | 0.00 | 0.00 | 0.00 | 85 | 1017.3 |
| 20260901085207 | 78 | 129 | 0.0 | 0.0 | 0.00 | 0.00 | 0.00 | 85 | 1017.4 |
| 20260901084701 | 78 | 129 | 0.0 | 0.0 | 0.00 | 0.00 | 0.00 | 85 | 1017.3 |
| 20260901084204 | 78 | 131 | 0.0 | 0.0 | 0.00 | 0.00 | 0.00 | 85 | 1017.4 |
| 20260901083723 | 78 | 139 | 0.0 | 0.0 | 0.00 | 0.00 | 0.00 | 85 | 1017.3 |
| 20260901083220 | 78 | 126 | 0.0 | 0.0 | 0.00 | 0.00 | 0.00 | 85 | 1017.3 |
| 20260901082627 | 78 | 130 | 0.0 | 0.0 | 0.00 | 0.00 | 0.00 | 84 | 1017.3 |
| 20260901082143 | 78 | 121 | 0.0 | 0.0 | 0.00 | 0.00 | 0.00 | 84 | 1017.2 |
| 20260901081713 | 78 | 121 | 0.0 | 0.0 | 0.00 | 0.00 | 0.00 | 83 | 1017.2 |
| 20260901080634 | 78 | 141 | 0.0 | 0.0 | 0.00 | 0.00 | 0.00 | 83 | 1017.1 |
| 20260901080155 | 78 | 132 | 0.0 | 0.0 | 0.00 | 0.00 | 0.00 | 82 | 1017.2 |
| 20260901075134 | 79 | 126 | 0.0 | 0.0 | 0.00 | 0.00 | 0.00 | 82 | 1017.1 |
| 20260901074657 | 79 | 124 | 0.0 | 0.0 | 0.00 | 0.00 | 0.00 | 81 | 1017.2 |
| 20260901074157 | 79 | 125 | 0.0 | 6.0 | 0.00 | 0.00 | 0.00 | 81 | 1017.1 |
| 20260901073715 | 79 | 152 | 3.0 | 7.0 | 0.00 | 0.00 | 0.00 | 81 | 1017.1 |
| 20260901073216 | 79 | 166 | 3.0 | 7.0 | 0.00 | 0.00 | 0.00 | 81 | 1017.1 |
| 20260901072712 | 79 | 166 | 4.0 | 10.0 | 0.00 | 0.00 | 0.00 | 80 | 1017.1 |
| 20260901072204 | 79 | 140 | 5.0 | 10.0 | 0.00 | 0.00 | 0.00 | 80 | 1017.2 |
| 20260901071715 | 79 | 134 | 5.0 | 10.0 | 0.00 | 0.00 | 0.00 | 80 | 1017.0 |
| 20260901070641 | 80 | 154 | 5.0 | 8.0 | 0.00 | 0.00 | 0.00 | 78 | 1017.1 |
| 20260901070151 | 80 | 139 | 3.0 | 8.0 | 0.00 | 0.00 | 0.00 | 78 | 1017.0 |
| 20260901065638 | 80 | 138 | 3.0 | 10.0 | 0.00 | 0.00 | 0.00 | 78 | 1017.2 |
| 20260901065158 | 80 | 142 | 5.0 | 10.0 | 0.00 | 0.00 | 0.00 | 77 | 1017.1 |
| 20260901064625 | 80 | 127 | 4.0 | 6.0 | 0.00 | 0.00 | 0.00 | 77 | 1017.2 |
| 20260901064151 | 80 | 142 | 4.0 | 6.0 | 0.00 | 0.00 | 0.00 | 76 | 1017.0 |
| 20260901063629 | 80 | 141 | 4.0 | 6.0 | 0.00 | 0.00 | 0.00 | 76 | 1016.9 |
| 20260901063132 | 80 | 144 | 4.0 | 6.0 | 0.00 | 0.00 | 0.00 | 75 | 1017.0 |
| 20260901062639 | 80 | 144 | 2.0 | 5.0 | 0.00 | 0.00 | 0.00 | 75 | 1017.0 |
| 20260901062144 | 81 | 152 | 3.0 | 6.0 | 0.00 | 0.00 | 0.00 | 74 | 1017.0 |
| 20260901061641 | 81 | 148 | 2.0 | 7.0 | 0.00 | 0.00 | 0.00 | 74 | 1017.0 |
| 20260901061128 | 81 | 158 | 5.0 | 7.0 | 0.00 | 0.00 | 0.00 | 74 | 1016.9 |
| 20260901060635 | 81 | 131 | 4.0 | 8.0 | 0.00 | 0.00 | 0.00 | 73 | 1016.9 |
| 20260901060141 | 81 | 114 | 5.0 | 8.0 | 0.00 | 0.00 | 0.00 | 73 | 1016.8 |
| 20260901055647 | 81 | 130 | 4.0 | 7.0 | 0.00 | 0.00 | 0.00 | 72 | 1016.6 |
| 20260901055125 | 82 | 162 | 4.0 | 7.0 | 0.00 | 0.00 | 0.00 | 72 | 1016.5 |
| 20260901054633 | 82 | 129 | 5.0 | 7.0 | 0.00 | 0.00 | 0.00 | 71 | 1016.5 |
| 20260901054134 | 82 | 130 | 4.0 | 9.0 | 0.00 | 0.00 | 0.00 | 71 | 1016.5 |
| 20260901053702 | 82 | 142 | 4.0 | 9.0 | 0.00 | 0.00 | 0.00 | 71 | 1016.5 |
| 20260901053148 | 82 | 145 | 5.0 | 9.0 | 0.00 | 0.00 | 0.00 | 71 | 1016.6 |
| 20260901052627 | 82 | 122 | 5.0 | 9.0 | 0.00 | 0.00 | 0.00 | 70 | 1016.6 |
| 20260901052134 | 83 | 111 | 5.0 | 9.0 | 0.00 | 0.00 | 0.00 | 70 | 1016.5 |
| 20260901051641 | 83 | 117 | 4.0 | 10.0 | 0.00 | 0.00 | 0.00 | 70 | 1016.6 |
| 20260901051138 | 83 | 122 | 5.0 | 8.0 | 0.00 | 0.00 | 0.00 | 69 | 1016.6 |
| 20260901050625 | 83 | 144 | 3.0 | 9.0 | 0.00 | 0.00 | 0.00 | 69 | 1016.6 |
| 20260901050132 | 83 | 129 | 6.0 | 9.0 | 0.00 | 0.00 | 0.00 | 69 | 1016.6 |
| 20260901045216 | 84 | 148 | 6.0 | 10.0 | 0.00 | 0.00 | 0.00 | 68 | 1016.5 |
| 20260901044634 | 84 | 148 | 6.0 | 10.0 | 0.00 | 0.00 | 0.00 | 68 | 1016.4 |
| 20260901044236 | 84 | 155 | 5.0 | 11.0 | 0.00 | 0.00 | 0.00 | 67 | 1016.3 |
| 20260901043708 | 84 | 175 | 6.0 | 13.0 | 0.00 | 0.00 | 0.00 | 67 | 1016.3 |
| 20260901043142 | 84 | 175 | 7.0 | 13.0 | 0.00 | 0.00 | 0.00 | 66 | 1016.4 |
| 20260901042222 | 85 | 144 | 5.0 | 14.0 | 0.00 | 0.00 | 0.00 | 66 | 1016.2 |
| 20260901041628 | 85 | 135 | 7.0 | 18.0 | 0.00 | 0.00 | 0.00 | 65 | 1016.2 |
| 20260901041223 | 85 | 142 | 9.0 | 18.0 | 0.00 | 0.00 | 0.00 | 65 | 1016.3 |
| 20260901040647 | 85 | 150 | 9.0 | 20.0 | 0.00 | 0.00 | 0.00 | 65 | 1016.3 |
| 20260901040152 | 85 | 140 | 9.0 | 20.0 | 0.00 | 0.00 | 0.00 | 64 | 1016.3 |
| 20260901035712 | 86 | 157 | 8.0 | 18.0 | 0.00 | 0.00 | 0.00 | 63 | 1016.2 |
| 20260901035134 | 86 | 155 | 10.0 | 19.0 | 0.00 | 0.00 | 0.00 | 62 | 1016.1 |
| 20260901034632 | 86 | 166 | 10.0 | 19.0 | 0.00 | 0.00 | 0.00 | 61 | 1016.1 |
| 20260901034146 | 86 | 146 | 6.0 | 13.0 | 0.00 | 0.00 | 0.00 | 61 | 1016.0 |
| 20260901033137 | 86 | 141 | 9.0 | 18.0 | 0.00 | 0.00 | 0.00 | 60 | 1016.0 |
| 20260901032629 | 86 | 142 | 7.0 | 13.0 | 0.00 | 0.00 | 0.00 | 60 | 1016.1 |
| 20260901032125 | 87 | 162 | 4.0 | 9.0 | 0.00 | 0.00 | 0.00 | 60 | 1016.0 |
| 20260901031740 | 87 | 120 | 4.0 | 10.0 | 0.00 | 0.00 | 0.00 | 59 | 1015.9 |
| 20260901031135 | 87 | 148 | 5.0 | 10.0 | 0.00 | 0.00 | 0.00 | 59 | 1015.7 |
| 20260901030651 | 87 | 132 | 4.0 | 8.0 | 0.00 | 0.00 | 0.00 | 59 | 1015.6 |
| 20260901030211 | 87 | 132 | 5.0 | 9.0 | 0.00 | 0.00 | 0.00 | 59 | 1015.5 |
| 20260901025726 | 87 | 126 | 6.0 | 9.0 | 0.00 | 0.00 | 0.00 | 58 | 1015.4 |
| 20260901025218 | 87 | 134 | 4.0 | 9.0 | 0.00 | 0.00 | 0.00 | 58 | 1015.3 |
| 20260901024637 | 87 | 126 | 6.0 | 9.0 | 0.00 | 0.00 | 0.00 | 58 | 1015.1 |
| 20260901024154 | 88 | 139 | 7.0 | 10.0 | 0.00 | 0.00 | 0.00 | 58 | 1015.1 |
| 20260901023715 | 88 | 129 | 7.0 | 10.0 | 0.00 | 0.00 | 0.00 | 58 | 1015.1 |
| 20260901023223 | 88 | 130 | 4.0 | 9.0 | 0.00 | 0.00 | 0.00 | 58 | 1015.0 |
| 20260901022631 | 88 | 158 | 4.0 | 9.0 | 0.00 | 0.00 | 0.00 | 58 | 1014.9 |
| 20260901022159 | 88 | 144 | 4.0 | 8.0 | 0.00 | 0.00 | 0.00 | 57 | 1014.8 |
| 20260901021238 | 88 | 76 | 5.0 | 9.0 | 0.00 | 0.00 | 0.00 | 57 | 1014.7 |
| 20260901020716 | 89 | 78 | 4.0 | 7.0 | 0.00 | 0.00 | 0.00 | 56 | 1014.7 |
| 20260901020138 | 89 | 116 | 3.0 | 9.0 | 0.00 | 0.00 | 0.00 | 56 | 1014.6 |
| 20260901015632 | 89 | 105 | 4.0 | 8.0 | 0.00 | 0.00 | 0.00 | 55 | 1014.5 |
| 20260901015156 | 89 | 119 | 5.0 | 9.0 | 0.00 | 0.00 | 0.00 | 55 | 1014.6 |
| 20260901014138 | 89 | 142 | 4.0 | 10.0 | 0.00 | 0.00 | 0.00 | 53 | 1014.5 |
| 20260901013658 | 90 | 97 | 5.0 | 10.0 | 0.00 | 0.00 | 0.00 | 52 | 1014.5 |
| 20260901013152 | 90 | 109 | 4.0 | 8.0 | 0.00 | 0.00 | 0.00 | 52 | 1014.4 |
| 20260901012706 | 90 | 99 | 4.0 | 12.0 | 0.00 | 0.00 | 0.00 | 51 | 1014.4 |
| 20260901012125 | 90 | 101 | 6.0 | 12.0 | 0.00 | 0.00 | 0.00 | 49 | 1014.4 |
| 20260901011640 | 90 | 92 | 6.0 | 11.0 | 0.00 | 0.00 | 0.00 | 48 | 1014.3 |
| 20260901011151 | 91 | 74 | 2.0 | 4.0 | 0.00 | 0.00 | 0.00 | 47 | 1014.2 |
| 20260901010740 | 91 | 74 | 1.0 | 5.0 | 0.00 | 0.00 | 0.00 | 47 | 1014.0 |
| 20260901010212 | 92 | 74 | 3.0 | 5.0 | 0.00 | 0.00 | 0.00 | 45 | 1014.0 |
| 20260901005711 | 92 | 97 | 2.0 | 3.0 | 0.00 | 0.00 | 0.00 | 45 | 1014.0 |
| 20260901005202 | 92 | 97 | 2.0 | 5.0 | 0.00 | 0.00 | 0.00 | 45 | 1014.0 |
| 20260901004656 | 93 | 99 | 3.0 | 5.0 | 0.00 | 0.00 | 0.00 | 44 | 1014.0 |
| 20260901004221 | 93 | 83 | 3.0 | 6.0 | 0.00 | 0.00 | 0.00 | 44 | 1014.0 |
| 20260901003633 | 93 | 101 | 2.0 | 6.0 | 0.00 | 0.00 | 0.00 | 43 | 1013.9 |
| 20260901003157 | 94 | 101 | 2.0 | 8.0 | 0.00 | 0.00 | 0.00 | 43 | 1014.0 |
| 20260901002710 | 94 | 113 | 5.0 | 8.0 | 0.00 | 0.00 | 0.00 | 43 | 1013.9 |
| 20260901002204 | 94 | 113 | 5.0 | 8.0 | 0.00 | 0.00 | 0.00 | 42 | 1013.9 |
| 20260901001703 | 94 | 112 | 3.0 | 7.0 | 0.00 | 0.00 | 0.00 | 43 | 1013.9 |
| 20260901001216 | 94 | 113 | 2.0 | 8.0 | 0.00 | 0.00 | 0.00 | 43 | 1013.7 |
| 20260901000627 | 94 | 120 | 5.0 | 8.0 | 0.00 | 0.00 | 0.00 | 42 | 1013.7 |
| 20260901000157 | 94 | 109 | 4.0 | 8.0 | 0.00 | 0.00 | 0.00 | 43 | 1013.7 |
| 20260831235713 | 94 | 119 | 3.0 | 7.0 | 0.00 | 0.00 | 0.00 | 42 | 1013.7 |
| 20260831235135 | 95 | 78 | 5.0 | 9.0 | 0.00 | 0.00 | 0.00 | 42 | 1013.7 |
| 20260831234651 | 95 | 88 | 5.0 | 9.0 | 0.00 | 0.00 | 0.00 | 42 | 1013.6 |
| 20260831234211 | 95 | 76 | 4.0 | 13.0 | 0.00 | 0.00 | 0.00 | 42 | 1013.7 |
| 20260831233723 | 95 | 126 | 7.0 | 13.0 | 0.00 | 0.00 | 0.00 | 42 | 1013.7 |
| 20260831233132 | 95 | 78 | 6.0 | 12.0 | 0.00 | 0.00 | 0.00 | 42 | 1013.6 |
| 20260831232651 | 95 | 63 | 6.0 | 11.0 | 0.00 | 0.00 | 0.00 | 42 | 1013.6 |
| 20260831231642 | 95 | 44 | 6.0 | 10.0 | 0.00 | 0.00 | 0.00 | 43 | 1013.7 |
| 20260831231201 | 95 | 114 | 6.0 | 10.0 | 0.00 | 0.00 | 0.00 | 43 | 1013.7 |
| 20260831230713 | 95 | 144 | 6.0 | 12.0 | 0.00 | 0.00 | 0.00 | 42 | 1013.7 |
| 20260831230224 | 95 | 129 | 7.0 | 18.0 | 0.00 | 0.00 | 0.00 | 42 | 1013.8 |
| 20260831225151 | 95 | 157 | 4.0 | 9.0 | 0.00 | 0.00 | 0.00 | 44 | 1013.7 |
| 20260831224721 | 95 | 128 | 1.0 | 11.0 | 0.00 | 0.00 | 0.00 | 44 | 1013.8 |
| 20260831224129 | 95 | 202 | 5.0 | 12.0 | 0.00 | 0.00 | 0.00 | 44 | 1013.9 |
| 20260831223641 | 94 | 175 | 6.0 | 11.0 | 0.00 | 0.00 | 0.00 | 45 | 1013.9 |
| 20260831222632 | 94 | 123 | 6.0 | 10.0 | 0.00 | 0.00 | 0.00 | 44 | 1014.0 |
| 20260831222143 | 95 | 148 | 4.0 | 10.0 | 0.00 | 0.00 | 0.00 | 44 | 1014.1 |
| 20260831221138 | 96 | 134 | 6.0 | 11.0 | 0.00 | 0.00 | 0.00 | 43 | 1014.1 |
| 20260831220650 | 96 | 117 | 5.0 | 9.0 | 0.00 | 0.00 | 0.00 | 43 | 1014.1 |
| 20260831215633 | 96 | 126 | 7.0 | 12.0 | 0.00 | 0.00 | 0.00 | 42 | 1014.2 |
| 20260831215148 | 96 | 172 | 7.0 | 10.0 | 0.00 | 0.00 | 0.00 | 43 | 1014.3 |
| 20260831214714 | 96 | 106 | 5.0 | 9.0 | 0.00 | 0.00 | 0.00 | 43 | 1014.4 |
| 20260831214131 | 96 | 213 | 3.0 | 12.0 | 0.00 | 0.00 | 0.00 | 44 | 1014.4 |
| 20260831213647 | 95 | 119 | 5.0 | 12.0 | 0.00 | 0.00 | 0.00 | 43 | 1014.4 |
| 20260831212631 | 94 | 148 | 4.0 | 8.0 | 0.00 | 0.00 | 0.00 | 45 | 1014.6 |
| 20260831212148 | 95 | 151 | 4.0 | 11.0 | 0.00 | 0.00 | 0.00 | 44 | 1014.6 |
| 20260831211712 | 95 | 169 | 7.0 | 11.0 | 0.00 | 0.00 | 0.00 | 45 | 1014.7 |
| 20260831211222 | 95 | 96 | 5.0 | 12.0 | 0.00 | 0.00 | 0.00 | 45 | 1014.8 |
| 20260831210744 | 95 | 123 | 6.0 | 12.0 | 0.00 | 0.00 | 0.00 | 46 | 1014.8 |
| 20260831210135 | 95 | 188 | 3.0 | 9.0 | 0.00 | 0.00 | 0.00 | 46 | 1014.9 |
| 20260831205649 | 95 | 145 | 5.0 | 9.0 | 0.00 | 0.00 | 0.00 | 45 | 1015.0 |
| 20260831205212 | 95 | 186 | 3.0 | 10.0 | 0.00 | 0.00 | 0.00 | 44 | 1015.0 |
| 20260831204709 | 94 | 159 | 6.0 | 12.0 | 0.00 | 0.00 | 0.00 | 46 | 1015.2 |
| 20260831204221 | 94 | 81 | 5.0 | 12.0 | 0.00 | 0.00 | 0.00 | 47 | 1015.3 |
| 20260831203630 | 94 | 83 | 7.0 | 12.0 | 0.00 | 0.00 | 0.00 | 46 | 1015.5 |
| 20260831203158 | 94 | 89 | 8.0 | 14.0 | 0.00 | 0.00 | 0.00 | 45 | 1015.6 |
| 20260831202649 | 94 | 105 | 9.0 | 14.0 | 0.00 | 0.00 | 0.00 | 46 | 1015.7 |
| 20260831201723 | 94 | 156 | 5.0 | 10.0 | 0.00 | 0.00 | 0.00 | 46 | 1015.7 |
| 20260831201217 | 94 | 134 | 5.0 | 9.0 | 0.00 | 0.00 | 0.00 | 47 | 1015.9 |
| 20260831200710 | 94 | 137 | 3.0 | 13.0 | 0.00 | 0.00 | 0.00 | 48 | 1015.9 |
| 20260831200222 | 94 | 146 | 7.0 | 15.0 | 0.00 | 0.00 | 0.00 | 47 | 1016.1 |
| 20260831195145 | 94 | 149 | 4.0 | 13.0 | 0.00 | 0.00 | 0.00 | 48 | 1016.2 |
| 20260831194643 | 93 | 58 | 7.0 | 13.0 | 0.00 | 0.00 | 0.00 | 49 | 1016.3 |
| 20260831194140 | 93 | 153 | 8.0 | 13.0 | 0.00 | 0.00 | 0.00 | 47 | 1016.4 |
| 20260831193636 | 93 | 130 | 4.0 | 12.0 | 0.00 | 0.00 | 0.00 | 49 | 1016.4 |
| 20260831193150 | 93 | 182 | 5.0 | 18.0 | 0.00 | 0.00 | 0.00 | 49 | 1016.5 |
| 20260831192654 | 94 | 113 | 7.0 | 18.0 | 0.00 | 0.00 | 0.00 | 48 | 1016.6 |
| 20260831192204 | 94 | 232 | 2.0 | 10.0 | 0.00 | 0.00 | 0.00 | 50 | 1016.6 |
| 20260831191640 | 93 | 80 | 4.0 | 9.0 | 0.00 | 0.00 | 0.00 | 50 | 1016.7 |
| 20260831191152 | 93 | 182 | 4.0 | 11.0 | 0.00 | 0.00 | 0.00 | 51 | 1016.8 |
| 20260831190719 | 93 | 97 | 7.0 | 16.0 | 0.00 | 0.00 | 0.00 | 50 | 1016.8 |
| 20260831190134 | 93 | 152 | 6.0 | 12.0 | 0.00 | 0.00 | 0.00 | 50 | 1016.8 |
| 20260831185655 | 93 | 144 | 6.0 | 12.0 | 0.00 | 0.00 | 0.00 | 50 | 1017.0 |
| 20260831185149 | 93 | 89 | 1.0 | 8.0 | 0.00 | 0.00 | 0.00 | 51 | 1016.9 |
| 20260831184704 | 92 | 85 | 3.0 | 8.0 | 0.00 | 0.00 | 0.00 | 53 | 1017.0 |
| 20260831184127 | 93 | 85 | 4.0 | 14.0 | 0.00 | 0.00 | 0.00 | 51 | 1017.1 |
| 20260831183644 | 92 | 170 | 6.0 | 14.0 | 0.00 | 0.00 | 0.00 | 52 | 1017.2 |
| 20260831182634 | 91 | 73 | 0.0 | 7.0 | 0.00 | 0.00 | 0.00 | 53 | 1017.1 |
| 20260831182145 | 91 | 102 | 3.0 | 8.0 | 0.00 | 0.00 | 0.00 | 54 | 1017.3 |
| 20260831181239 | 92 | 144 | 5.0 | 12.0 | 0.00 | 0.00 | 0.00 | 54 | 1017.4 |
| 20260831180737 | 92 | 137 | 1.0 | 12.0 | 0.00 | 0.00 | 0.00 | 57 | 1017.4 |
| 20260831180135 | 91 | 79 | 5.0 | 12.0 | 0.00 | 0.00 | 0.00 | 54 | 1017.5 |
| 20260831175650 | 91 | 144 | 7.0 | 12.0 | 0.00 | 0.00 | 0.00 | 53 | 1017.6 |
| 20260831174642 | 91 | 142 | 7.0 | 12.0 | 0.00 | 0.00 | 0.00 | 52 | 1017.8 |
| 20260831174157 | 90 | 166 | 5.0 | 9.0 | 0.00 | 0.00 | 0.00 | 57 | 1017.9 |
| 20260831173148 | 90 | 166 | 7.0 | 13.0 | 0.00 | 0.00 | 0.00 | 54 | 1017.9 |
| 20260831172645 | 90 | 178 | 8.0 | 13.0 | 0.00 | 0.00 | 0.00 | 55 | 1017.9 |
| 20260831171634 | 89 | 55 | 4.0 | 12.0 | 0.00 | 0.00 | 0.00 | 57 | 1017.9 |
| 20260831171148 | 89 | 101 | 7.0 | 12.0 | 0.00 | 0.00 | 0.00 | 59 | 1018.0 |
| 20260831170715 | 89 | 227 | 4.0 | 12.0 | 0.00 | 0.00 | 0.00 | 59 | 1018.1 |
| 20260831170126 | 89 | 55 | 4.0 | 12.0 | 0.00 | 0.00 | 0.00 | 60 | 1018.1 |
| 20260831165642 | 89 | 109 | 6.0 | 9.0 | 0.00 | 0.00 | 0.00 | 60 | 1018.1 |
| 20260831165201 | 89 | 111 | 6.0 | 9.0 | 0.00 | 0.00 | 0.00 | 60 | 1018.2 |
| 20260831164653 | 88 | 217 | 5.0 | 9.0 | 0.00 | 0.00 | 0.00 | 62 | 1018.1 |
| 20260831164222 | 88 | 121 | 5.0 | 9.0 | 0.00 | 0.00 | 0.00 | 64 | 1018.1 |
| 20260831163634 | 87 | 178 | 5.0 | 11.0 | 0.00 | 0.00 | 0.00 | 65 | 1018.1 |
| 20260831163148 | 87 | 128 | 7.0 | 13.0 | 0.00 | 0.00 | 0.00 | 64 | 1018.2 |
| 20260831162717 | 87 | 128 | 7.0 | 13.0 | 0.00 | 0.00 | 0.00 | 66 | 1018.1 |
| 20260831162210 | 87 | 138 | 2.0 | 12.0 | 0.00 | 0.00 | 0.00 | 67 | 1018.2 |
| 20260831161712 | 87 | 202 | 7.0 | 12.0 | 0.00 | 0.00 | 0.00 | 67 | 1018.1 |
| 20260831160641 | 87 | 88 | 5.0 | 11.0 | 0.00 | 0.00 | 0.00 | 69 | 1018.0 |
| 20260831160138 | 86 | 136 | 5.0 | 11.0 | 0.00 | 0.00 | 0.00 | 69 | 1018.1 |
| 20260831155703 | 86 | 139 | 4.0 | 12.0 | 0.00 | 0.00 | 0.00 | 69 | 1018.1 |
| 20260831155219 | 86 | 151 | 6.0 | 12.0 | 0.00 | 0.00 | 0.00 | 70 | 1018.0 |
| 20260831154643 | 85 | 192 | 4.0 | 12.0 | 0.00 | 0.00 | 0.00 | 72 | 1018.0 |
| 20260831154200 | 85 | 155 | 7.0 | 14.0 | 0.00 | 0.00 | 0.00 | 72 | 1017.9 |
| 20260831153721 | 85 | 130 | 7.0 | 13.0 | 0.00 | 0.00 | 0.00 | 73 | 1018.0 |
| 20260831152640 | 84 | 163 | 8.0 | 13.0 | 0.00 | 0.00 | 0.00 | 74 | 1017.9 |
| 20260831152238 | 84 | 156 | 6.0 | 13.0 | 0.00 | 0.00 | 0.00 | 76 | 1017.9 |
| 20260831151708 | 84 | 136 | 7.0 | 13.0 | 0.00 | 0.00 | 0.00 | 75 | 1017.9 |
| 20260831151202 | 83 | 78 | 5.0 | 12.0 | 0.00 | 0.00 | 0.00 | 77 | 1017.9 |
| 20260831150721 | 83 | 142 | 6.0 | 11.0 | 0.00 | 0.00 | 0.00 | 79 | 1017.9 |
| 20260831150212 | 82 | 153 | 4.0 | 10.0 | 0.00 | 0.00 | 0.00 | 80 | 1017.9 |
| 20260831145720 | 82 | 171 | 5.0 | 9.0 | 0.00 | 0.00 | 0.00 | 81 | 1017.8 |
| 20260831145224 | 82 | 188 | 5.0 | 9.0 | 0.00 | 0.00 | 0.00 | 82 | 1017.7 |
| 20260831144636 | 81 | 199 | 4.0 | 11.0 | 0.00 | 0.00 | 0.00 | 82 | 1017.7 |
| 20260831144149 | 81 | 217 | 4.0 | 11.0 | 0.00 | 0.00 | 0.00 | 82 | 1017.8 |
| 20260831143647 | 81 | 171 | 7.0 | 12.0 | 0.00 | 0.00 | 0.00 | 81 | 1017.8 |
| 20260831143203 | 81 | 190 | 8.0 | 11.0 | 0.00 | 0.00 | 0.00 | 82 | 1017.7 |
| 20260831142704 | 81 | 153 | 6.0 | 11.0 | 0.00 | 0.00 | 0.00 | 84 | 1017.7 |
| 20260831142215 | 81 | 149 | 5.0 | 11.0 | 0.00 | 0.00 | 0.00 | 84 | 1017.7 |
| 20260831141140 | 80 | 140 | 4.0 | 8.0 | 0.00 | 0.00 | 0.00 | 88 | 1017.7 |
| 20260831140657 | 80 | 159 | 4.0 | 10.0 | 0.00 | 0.00 | 0.00 | 89 | 1017.7 |
| 20260831140129 | 79 | 128 | 5.0 | 10.0 | 0.00 | 0.00 | 0.00 | 90 | 1017.6 |
| 20260831135137 | 79 | 116 | 4.0 | 7.0 | 0.00 | 0.00 | 0.00 | 91 | 1017.6 |
| 20260831134655 | 78 | 154 | 2.0 | 7.0 | 0.00 | 0.00 | 0.00 | 91 | 1017.6 |
| 20260831134211 | 78 | 160 | 4.0 | 6.0 | 0.00 | 0.00 | 0.00 | 92 | 1017.5 |
| 20260831133715 | 78 | 169 | 2.0 | 7.0 | 0.00 | 0.00 | 0.00 | 92 | 1017.6 |
| 20260831133129 | 78 | 124 | 3.0 | 6.0 | 0.00 | 0.00 | 0.00 | 93 | 1017.5 |
| 20260831132642 | 78 | 170 | 0.0 | 0.0 | 0.00 | 0.00 | 0.00 | 93 | 1017.4 |
| 20260831132202 | 78 | 178 | 0.0 | 0.0 | 0.00 | 0.00 | 0.00 | 93 | 1017.3 |
| 20260831131657 | 77 | 178 | 0.0 | 0.0 | 0.00 | 0.00 | 0.00 | 93 | 1017.3 |
| 20260831130648 | 77 | 140 | 0.0 | 0.0 | 0.00 | 0.00 | 0.00 | 94 | 1017.3 |
| 20260831130203 | 77 | 140 | 0.0 | 0.0 | 0.00 | 0.00 | 0.00 | 94 | 1017.2 |
| 20260831125707 | 77 | 140 | 0.0 | 0.0 | 0.00 | 0.00 | 0.00 | 94 | 1017.3 |
| 20260831125207 | 77 | 140 | 0.0 | 0.0 | 0.00 | 0.00 | 0.00 | 94 | 1017.3 |
| 20260831124722 | 76 | 140 | 0.0 | 0.0 | 0.00 | 0.00 | 0.00 | 94 | 1017.2 |
| 20260831124147 | 76 | 140 | 0.0 | 1.0 | 0.00 | 0.00 | 0.00 | 93 | 1017.0 |
| 20260831123704 | 76 | 140 | 0.0 | 5.0 | 0.00 | 0.00 | 0.00 | 93 | 1016.9 |
| 20260831123143 | 76 | 127 | 2.0 | 5.0 | 0.00 | 0.00 | 0.00 | 93 | 1017.0 |
| 20260831122709 | 76 | 163 | 1.0 | 2.0 | 0.00 | 0.00 | 0.00 | 93 | 1016.8 |
| 20260831122201 | 76 | 166 | 0.0 | 0.0 | 0.00 | 0.00 | 0.00 | 93 | 1016.7 |
| 20260831121715 | 76 | 171 | 0.0 | 0.0 | 0.00 | 0.00 | 0.00 | 93 | 1016.8 |
| 20260831121134 | 76 | 171 | 0.0 | 0.0 | 0.00 | 0.00 | 0.00 | 93 | 1016.7 |
| 20260831120630 | 76 | 171 | 0.0 | 0.0 | 0.00 | 0.00 | 0.00 | 93 | 1016.7 |
| 20260831120149 | 76 | 171 | 0.0 | 0.0 | 0.00 | 0.00 | 0.00 | 93 | 1016.7 |
| 20260831115718 | 76 | 171 | 0.0 | 0.0 | 0.00 | 0.00 | 0.00 | 92 | 1016.6 |
| 20260831115131 | 76 | 171 | 0.0 | 0.0 | 0.00 | 0.00 | 0.00 | 92 | 1016.6 |
| 20260831114646 | 76 | 171 | 0.0 | 0.0 | 0.00 | 0.00 | 0.00 | 92 | 1016.5 |
| 20260831114201 | 76 | 171 | 0.0 | 2.0 | 0.00 | 0.00 | 0.00 | 92 | 1016.6 |
| 20260831113654 | 76 | 171 | 1.0 | 2.0 | 0.00 | 0.00 | 0.00 | 92 | 1016.5 |
| 20260831113155 | 77 | 171 | 1.0 | 2.0 | 0.00 | 0.00 | 0.00 | 92 | 1016.6 |
| 20260831112224 | 77 | 171 | 0.0 | 2.0 | 0.00 | 0.00 | 0.00 | 92 | 1016.6 |
| 20260831111659 | 77 | 171 | 0.0 | 4.0 | 0.00 | 0.00 | 0.00 | 92 | 1016.6 |
| 20260831111155 | 77 | 171 | 1.0 | 4.0 | 0.00 | 0.00 | 0.00 | 92 | 1016.6 |